EZY214 EGPH-EGKK

Flight info

Callsign EZY214
Flight time N/A
Altitude 39000
Route GOSAM P600 FENIK L612 NAVSO DCT ADZOP DCT EGTOC DCT KEPAD L151 DISIT
Aircraft A20N/M-SDE2E3FGHIRWXY/LB1

Departure

Time 2026-04-26 18:51
Airport Edinburgh Airport (EGPH)

Arrival

Time N/A
Airport London Gatwick Airport (EGKK)
Time Latitude Longitude Altitude Speed Heading
2026-04-26 18:20 55.94782 -3.36887 109 ft 0 kts 268°
2026-04-26 18:42 55.94782 -3.36879 108 ft 2 kts 268°
2026-04-26 18:42 55.94782 -3.36853 108 ft 2 kts 269°
2026-04-26 18:42 55.94783 -3.36828 108 ft 2 kts 269°
2026-04-26 18:42 55.94782 -3.36803 107 ft 2 kts 285°
2026-04-26 18:43 55.94777 -3.36778 106 ft 2 kts 300°
2026-04-26 18:43 55.94771 -3.36763 107 ft 0 kts 307°
2026-04-26 18:45 55.94804 -3.36777 106 ft 8 kts 349°
2026-04-26 18:46 55.94887 -3.36796 107 ft 15 kts 336°
2026-04-26 18:46 55.94912 -3.36914 108 ft 9 kts 234°
2026-04-26 18:46 55.94872 -3.37050 109 ft 15 kts 243°
2026-04-26 18:46 55.94811 -3.37224 109 ft 19 kts 237°
2026-04-26 18:47 55.94741 -3.37437 110 ft 21 kts 241°
2026-04-26 18:47 55.94668 -3.37658 116 ft 21 kts 240°
2026-04-26 18:47 55.94585 -3.37901 113 ft 25 kts 239°
2026-04-26 18:47 55.94487 -3.38190 112 ft 29 kts 238°
2026-04-26 18:48 55.94415 -3.38402 114 ft 17 kts 239°
2026-04-26 18:48 55.94358 -3.38563 119 ft 15 kts 236°
2026-04-26 18:48 55.94294 -3.38752 120 ft 20 kts 240°
2026-04-26 18:48 55.94298 -3.38865 120 ft 8 kts 303°
2026-04-26 18:49 55.94356 -3.38941 121 ft 14 kts 328°
2026-04-26 18:49 55.94419 -3.38940 119 ft 5 kts 33°
2026-04-26 18:49 55.94428 -3.38926 121 ft 2 kts 44°
2026-04-26 18:49 55.94423 -3.38937 121 ft 1 kts 52°
2026-04-26 18:50 55.94431 -3.38920 121 ft 4 kts 52°
2026-04-26 18:50 55.94478 -3.38790 119 ft 43 kts 58°
2026-04-26 18:50 55.94828 -3.37766 116 ft 142 kts 58°
2026-04-26 18:50 55.95409 -3.36038 690 ft 165 kts 58°
2026-04-26 18:51 55.95998 -3.34282 1443 ft 170 kts 58°
2026-04-26 18:51 55.96618 -3.32451 2202 ft 174 kts 58°
2026-04-26 18:51 55.97250 -3.30588 2953 ft 177 kts 58°
2026-04-26 18:51 55.98042 -3.28916 3710 ft 177 kts 30°
2026-04-26 18:52 55.99203 -3.28445 4458 ft 175 kts 350°
2026-04-26 18:52 55.99958 -3.28957 4962 ft 172 kts 323°
2026-04-26 18:52 56.00757 -3.31414 5646 ft 190 kts 274°
2026-04-26 18:52 56.00474 -3.33808 5865 ft 211 kts 246°
2026-04-26 18:53 55.99770 -3.36152 6343 ft 215 kts 239°
2026-04-26 18:53 55.99054 -3.38267 6842 ft 215 kts 239°
2026-04-26 18:53 55.98278 -3.40606 7184 ft 234 kts 240°
2026-04-26 18:53 55.97441 -3.43262 7505 ft 255 kts 241°
2026-04-26 18:54 55.96572 -3.46127 7832 ft 273 kts 242°
2026-04-26 18:54 55.95673 -3.49146 8408 ft 277 kts 242°
2026-04-26 18:54 55.94763 -3.52217 9027 ft 280 kts 242°
2026-04-26 18:54 55.93884 -3.55186 9573 ft 282 kts 242°
2026-04-26 18:55 55.92961 -3.58299 10138 ft 285 kts 242°
2026-04-26 18:55 55.92003 -3.61519 10348 ft 300 kts 242°
2026-04-26 18:55 55.91012 -3.64844 10473 ft 313 kts 242°
2026-04-26 18:55 55.89972 -3.68323 10613 ft 321 kts 242°
2026-04-26 18:56 55.88914 -3.71855 10893 ft 323 kts 242°
2026-04-26 18:56 55.87845 -3.75418 11184 ft 325 kts 242°
2026-04-26 18:56 55.86789 -3.78935 11454 ft 326 kts 242°
2026-04-26 18:56 55.85714 -3.82509 11709 ft 327 kts 242°
2026-04-26 18:57 55.84637 -3.86083 11974 ft 329 kts 242°
2026-04-26 18:57 55.83916 -3.88472 12149 ft 330 kts 242°
2026-04-26 18:57 55.82458 -3.93299 12483 ft 331 kts 242°
2026-04-26 18:57 55.81278 -3.96787 12703 ft 332 kts 231°
2026-04-26 18:58 55.79491 -3.99426 12916 ft 335 kts 209°
2026-04-26 18:58 55.77337 -4.00995 13127 ft 336 kts 199°
2026-04-26 18:58 55.75091 -4.02235 13334 ft 338 kts 197°
2026-04-26 18:58 55.72858 -4.03402 13519 ft 339 kts 198°
2026-04-26 18:59 55.70625 -4.04835 13700 ft 340 kts 202°
2026-04-26 18:59 55.68392 -4.06240 13887 ft 341 kts 198°
2026-04-26 18:59 55.66107 -4.07460 14064 ft 342 kts 197°
2026-04-26 18:59 55.63845 -4.08616 14500 ft 333 kts 197°
2026-04-26 19:00 55.61683 -4.09709 15346 ft 315 kts 197°
2026-04-26 19:00 55.59632 -4.10745 16260 ft 297 kts 197°
2026-04-26 19:00 55.57710 -4.11619 17325 ft 282 kts 191°
2026-04-26 19:00 55.55809 -4.11830 18710 ft 265 kts 177°
2026-04-26 19:01 55.54029 -4.11310 19889 ft 256 kts 165°
2026-04-26 19:01 55.52334 -4.10260 20629 ft 261 kts 157°
2026-04-26 19:01 55.50690 -4.08862 21303 ft 267 kts 153°
2026-04-26 19:01 55.49213 -4.07446 21919 ft 271 kts 152°
2026-04-26 19:02 55.47548 -4.05795 22588 ft 275 kts 151°
2026-04-26 19:02 55.45868 -4.04126 23229 ft 279 kts 151°
2026-04-26 19:02 55.44179 -4.02464 23879 ft 282 kts 152°
2026-04-26 19:02 55.43007 -4.01319 24285 ft 285 kts 152°
2026-04-26 19:03 55.40685 -3.99063 25077 ft 290 kts 152°
2026-04-26 19:03 55.38902 -3.97339 25675 ft 293 kts 152°
2026-04-26 19:03 55.37122 -3.95619 26226 ft 296 kts 152°
2026-04-26 19:03 55.35302 -3.93863 26762 ft 300 kts 152°
2026-04-26 19:04 55.33459 -3.92088 27259 ft 304 kts 152°
2026-04-26 19:04 55.31606 -3.90304 27764 ft 307 kts 152°
2026-04-26 19:04 55.29716 -3.88486 28242 ft 311 kts 152°
2026-04-26 19:04 55.27805 -3.86650 28745 ft 313 kts 152°
2026-04-26 19:05 55.23961 -3.82962 29643 ft 319 kts 152°
2026-04-26 19:05 55.21967 -3.81203 30080 ft 321 kts 158°
2026-04-26 19:05 55.19838 -3.79883 30493 ft 325 kts 162°
2026-04-26 19:06 55.17685 -3.78646 30854 ft 330 kts 162°
2026-04-26 19:06 55.15467 -3.77360 30984 ft 344 kts 162°
2026-04-26 19:06 55.13157 -3.76012 31003 ft 361 kts 162°
2026-04-26 19:06 55.10727 -3.74590 31003 ft 378 kts 162°
2026-04-26 19:07 55.08142 -3.73078 31002 ft 395 kts 162°
2026-04-26 19:07 55.05516 -3.71544 31001 ft 411 kts 162°
2026-04-26 19:07 55.02742 -3.69927 31001 ft 427 kts 162°
2026-04-26 19:07 54.99867 -3.68254 31001 ft 442 kts 162°
2026-04-26 19:08 54.96882 -3.66519 31001 ft 456 kts 162°
2026-04-26 19:08 54.90829 -3.63011 31000 ft 461 kts 162°
2026-04-26 19:09 54.84752 -3.59500 31000 ft 459 kts 162°
2026-04-26 19:09 54.79007 -3.56193 31000 ft 459 kts 162°
2026-04-26 19:10 54.72968 -3.52727 31000 ft 459 kts 162°
2026-04-26 19:10 54.66907 -3.49259 31000 ft 460 kts 162°
2026-04-26 19:11 54.60801 -3.45776 31000 ft 460 kts 162°
2026-04-26 19:11 54.54705 -3.42310 31000 ft 461 kts 162°
2026-04-26 19:12 54.48634 -3.38869 31000 ft 462 kts 162°
2026-04-26 19:12 54.42555 -3.35436 31000 ft 460 kts 162°
2026-04-26 19:13 54.36530 -3.32042 31000 ft 460 kts 162°
2026-04-26 19:13 54.30445 -3.28626 30999 ft 463 kts 162°
2026-04-26 19:14 54.24349 -3.25213 31000 ft 459 kts 162°
2026-04-26 19:14 54.18269 -3.21820 31000 ft 459 kts 162°
2026-04-26 19:15 54.12187 -3.18437 31001 ft 460 kts 162°
2026-04-26 19:15 54.06135 -3.15081 31000 ft 459 kts 162°
2026-04-26 19:16 54.00053 -3.11718 31000 ft 459 kts 162°
2026-04-26 19:16 53.93949 -3.08354 31000 ft 459 kts 162°
2026-04-26 19:17 53.87888 -3.05023 31000 ft 459 kts 162°
2026-04-26 19:17 53.81805 -3.01691 31000 ft 459 kts 162°
2026-04-26 19:18 53.76742 -2.98925 31000 ft 459 kts 162°
2026-04-26 19:18 53.69640 -2.95057 31000 ft 459 kts 162°
2026-04-26 19:19 53.63552 -2.91752 31000 ft 459 kts 162°
2026-04-26 19:19 53.58485 -2.89009 31000 ft 459 kts 162°
2026-04-26 19:20 53.52651 -2.85860 31000 ft 460 kts 163°
2026-04-26 19:20 53.46565 -2.82584 31000 ft 460 kts 163°
2026-04-26 19:21 53.40440 -2.79297 31000 ft 460 kts 163°
2026-04-26 19:21 53.34361 -2.76044 31000 ft 459 kts 163°
2026-04-26 19:22 53.28403 -2.72866 31000 ft 459 kts 163°
2026-04-26 19:22 53.22244 -2.69591 31000 ft 460 kts 163°
2026-04-26 19:23 53.16139 -2.66353 31017 ft 460 kts 163°
2026-04-26 19:23 53.13287 -2.64851 31131 ft 460 kts 163°
2026-04-26 19:23 53.10261 -2.63267 31018 ft 459 kts 163°
2026-04-26 19:24 53.04163 -2.60041 31000 ft 460 kts 163°
2026-04-26 19:24 52.94994 -2.55216 31000 ft 460 kts 163°
2026-04-26 19:25 52.89915 -2.52557 31000 ft 460 kts 163°
2026-04-26 19:25 52.82831 -2.48750 31001 ft 460 kts 159°
2026-04-26 19:26 52.77183 -2.43790 31002 ft 461 kts 146°
2026-04-26 19:26 52.71854 -2.37848 31000 ft 461 kts 146°
2026-04-26 19:27 52.66533 -2.31967 31000 ft 461 kts 147°
2026-04-26 19:27 52.61211 -2.26125 31000 ft 461 kts 147°
2026-04-26 19:28 52.58545 -2.23207 30860 ft 459 kts 147°
2026-04-26 19:28 52.55884 -2.20299 30606 ft 460 kts 147°
2026-04-26 19:28 52.53225 -2.17398 30360 ft 458 kts 147°
2026-04-26 19:28 52.50567 -2.14501 30115 ft 456 kts 147°
2026-04-26 19:29 52.47930 -2.11631 29875 ft 455 kts 147°
2026-04-26 19:29 52.45285 -2.08757 29631 ft 453 kts 147°
2026-04-26 19:29 52.42667 -2.05917 29380 ft 451 kts 147°
2026-04-26 19:29 52.40078 -2.03111 29132 ft 450 kts 147°
2026-04-26 19:30 52.37470 -2.00288 28882 ft 448 kts 147°
2026-04-26 19:30 52.34866 -1.97476 28634 ft 446 kts 147°
2026-04-26 19:30 52.32278 -1.94684 28383 ft 444 kts 147°
2026-04-26 19:30 52.30575 -1.92851 28220 ft 443 kts 147°
2026-04-26 19:31 52.27226 -1.89249 27891 ft 440 kts 147°
2026-04-26 19:31 52.24707 -1.86544 27653 ft 439 kts 147°
2026-04-26 19:31 52.22145 -1.83796 27280 ft 438 kts 147°
2026-04-26 19:31 52.19628 -1.81100 26573 ft 439 kts 147°
2026-04-26 19:32 52.17093 -1.78388 25949 ft 433 kts 147°
2026-04-26 19:32 52.14561 -1.75683 25258 ft 429 kts 147°
2026-04-26 19:32 52.12098 -1.73055 24627 ft 422 kts 147°
2026-04-26 19:32 52.09655 -1.70453 23843 ft 419 kts 147°
2026-04-26 19:33 52.07189 -1.67830 22606 ft 427 kts 147°
2026-04-26 19:33 52.04686 -1.65172 21226 ft 436 kts 147°
2026-04-26 19:33 52.02127 -1.62457 19720 ft 446 kts 147°
2026-04-26 19:33 51.99521 -1.59697 18588 ft 444 kts 147°
2026-04-26 19:34 51.96953 -1.56978 17623 ft 438 kts 147°
2026-04-26 19:34 51.94418 -1.54299 16674 ft 431 kts 147°
2026-04-26 19:34 51.91982 -1.51728 15737 ft 426 kts 147°
2026-04-26 19:34 51.89803 -1.49431 14904 ft 420 kts 147°
2026-04-26 19:35 51.87368 -1.46869 13956 ft 414 kts 147°
2026-04-26 19:35 51.85001 -1.44380 13011 ft 409 kts 147°
2026-04-26 19:35 51.82622 -1.41883 12076 ft 403 kts 147°
2026-04-26 19:35 51.80278 -1.39425 11146 ft 398 kts 147°
2026-04-26 19:36 51.77968 -1.37007 10226 ft 393 kts 147°
2026-04-26 19:36 51.76460 -1.35430 9611 ft 390 kts 147°
2026-04-26 19:36 51.73621 -1.32464 8500 ft 384 kts 148°
2026-04-26 19:36 51.71445 -1.30194 7640 ft 379 kts 148°
2026-04-26 19:37 51.69265 -1.27921 6779 ft 375 kts 148°
2026-04-26 19:37 51.67086 -1.25652 5922 ft 370 kts 148°
2026-04-26 19:37 51.64923 -1.23403 5181 ft 363 kts 148°
2026-04-26 19:37 51.62861 -1.21261 4863 ft 345 kts 148°
2026-04-26 19:38 51.60907 -1.19232 4748 ft 323 kts 148°
2026-04-26 19:38 51.59072 -1.17328 4731 ft 301 kts 148°
2026-04-26 19:38 51.57388 -1.15584 4730 ft 280 kts 148°
2026-04-26 19:38 51.55819 -1.13959 4733 ft 269 kts 148°
2026-04-26 19:39 51.54222 -1.12311 4732 ft 271 kts 148°
2026-04-26 19:39 51.52637 -1.10676 4732 ft 271 kts 148°
2026-04-26 19:39 51.51064 -1.09054 4732 ft 271 kts 148°
2026-04-26 19:39 51.49553 -1.07496 4731 ft 271 kts 148°
2026-04-26 19:40 51.47982 -1.05879 4732 ft 270 kts 148°
2026-04-26 19:40 51.46597 -1.04452 4733 ft 271 kts 148°
2026-04-26 19:40 51.45014 -1.02824 4732 ft 271 kts 148°
2026-04-26 19:40 51.43423 -1.01188 4732 ft 270 kts 148°
2026-04-26 19:41 51.41842 -0.99565 4732 ft 270 kts 148°
2026-04-26 19:41 51.40252 -0.97933 4732 ft 271 kts 148°
2026-04-26 19:41 51.38660 -0.96300 4732 ft 270 kts 148°
2026-04-26 19:41 51.37611 -0.95227 4732 ft 270 kts 148°
2026-04-26 19:42 51.35517 -0.93083 4731 ft 270 kts 148°
2026-04-26 19:42 51.33940 -0.91470 4648 ft 268 kts 148°
2026-04-26 19:42 51.32363 -0.89858 4591 ft 271 kts 148°
2026-04-26 19:42 51.30758 -0.88219 4719 ft 272 kts 148°
2026-04-26 19:43 51.29171 -0.86600 4730 ft 270 kts 148°
2026-04-26 19:43 51.27744 -0.85146 4731 ft 270 kts 148°
2026-04-26 19:43 51.26414 -0.83792 4732 ft 271 kts 148°
2026-04-26 19:43 51.24829 -0.82176 4731 ft 270 kts 148°
2026-04-26 19:44 51.23240 -0.80561 4731 ft 270 kts 148°
2026-04-26 19:44 51.21643 -0.78940 4731 ft 271 kts 148°
2026-04-26 19:44 51.20070 -0.77342 4731 ft 271 kts 148°
2026-04-26 19:44 51.18482 -0.75731 4732 ft 270 kts 148°
2026-04-26 19:45 51.16885 -0.74111 4731 ft 270 kts 148°
2026-04-26 19:45 51.15301 -0.72508 4731 ft 271 kts 148°
2026-04-26 19:45 51.13706 -0.70893 4731 ft 271 kts 148°
2026-04-26 19:45 51.12105 -0.69275 4731 ft 271 kts 148°
2026-04-26 19:46 51.10518 -0.67671 4732 ft 271 kts 148°
2026-04-26 19:46 51.08926 -0.66064 4731 ft 271 kts 148°
2026-04-26 19:46 51.07355 -0.64480 4731 ft 271 kts 148°
2026-04-26 19:46 51.05831 -0.62716 4731 ft 271 kts 136°
2026-04-26 19:47 51.04504 -0.60574 4728 ft 270 kts 144°